Location: Amsterdam
(30.7274°N, 84.4357°W)
Time: 00:40:08
(UTC+00:00)

Explorer 11/Cluster Stage 4 - Pass Details

Date: 24 February 2026
Orbit: 463 x 1176 km, 28.8° (Epoch: 9 March)

Event Time Altitude Azimuth Distance (km) Brightness Sun altitude
Rises 21:02:50 0° 266° (W) 2,740 10.3 29.1°
Reaches altitude 10° 21:06:04 10° 241° (WSW) 1,732 10.1 28.5°
Maximum altitude 21:08:14 14° 207° (SSW) 1,422 9.1 28.1°
Drops below altitude 10° 21:10:18 10° 173° (S) 1,630 8.6 27.7°
Sets 21:13:11 0° 147° (SSE) 2,469 9.1 27.2°
